[Iaude] MPEC N02: 2024 MQ1 [a=1.71,e=0.36,i=25.4,H=23.2]
    mpec at cfa.harvard.edu 
    mpec at cfa.harvard.edu
       
    Mon Jul  1 01:08:00 EDT 2024
    
    
  
M.P.E.C. 2024-N02                                  Issued 2024 July 1, 05:06 UT
     The Minor Planet Electronic Circulars contain information on unusual
         minor planets, routine data on comets and natural satellites,
         and occasional editorial announcements.  They are published
    on behalf of Division F of the International Astronomical Union by the
          Minor Planet Center, Smithsonian Astrophysical Observatory,
                          Cambridge, MA 02138, U.S.A.
			  
             Prepared using the Tamkin Foundation Computer Network
                              MPC at CFA.HARVARD.EDU
            URL https://www.minorplanetcenter.net/    ISSN 1523-6714
                                    2024 MQ1                                    
Observations:
     K24M01Q* C2024 06 29.48125620 26 00.846-20 24 00.90         21.14wXEN002F52
     K24M01Q  C2024 06 29.49306920 25 57.446-20 22 36.25         20.87wXEN002F52
     K24M01Q  C2024 06 29.50489120 25 53.996-20 21 11.06         20.96wXEN002F52
     K24M01Q  C2024 06 29.56421120 25 36.870-20 14 02.43               VEN002F52
     K24M01Q  C2024 06 29.56469120 25 36.718-20 13 58.45         20.94GVEN002F52
     K24M01Q 6C2024 06 30.06347020 23 24.279-19 14 24.32         20.7 G EN002Z84
     K24M01Q 6C2024 06 30.07447620 23 21.162-19 13 05.78         20.8 G EN002Z84
     K24M01Q 6C2024 06 30.08450420 23 18.352-19 11 53.70         20.8 G EN002Z84
     K24M01Q |C2024 07 01.17923020 18 33.790-17 02 09.50         20.9 GVEN002807
     K24M01Q |C2024 07 01.18473020 18 32.360-17 01 31.20         20.8 GVEN002807
     K24M01Q |C2024 07 01.18928020 18 31.150-17 00 59.40         21.4 GVEN002807
Observer details:
807 Cerro Tololo Observatory, La Serena.  Observers T. Linder, R. Holmes.
    0.61-m f/6.8 Ritchey-Chretien + CCD.
F52 Pan-STARRS 2, Haleakala.  Observers J. Herman, T. Lowe, P. Minguez, A.
    Schultz, I. Smith.  Measurers K. Chambers, T. de Boer, J. Fairlamb, H.
    Gao, M. Huber, C.-C. Lin, E. Magnier, Y. Ramanjooloo, R. Wainscoat, R.
    Weryk.  1.8-m Ritchey-Chretien + CCD.
Z84 Calar Alto-Schmidt.  Observers R. Kresken, F. Ocana, M. Micheli, L.
    Conversi.  Measurers R. Kresken, F. Ocana, M. Micheli.  0.8-m f/3
    Schmidt + CCD NET Gaia-DR2.
Orbital elements:
2024 MQ1                                                 Earth MOID = 0.1625 AU
Epoch 2024 Mar. 31.0 TT = JDT 2460400.5                 MPC                     
M 342.30189              (2000.0)            P               Q                  
n   0.44026017     Peri.  312.01267     -0.51183470     +0.75014190             
a   1.7113143      Node   282.40290     -0.60530931     -0.66075502             
e   0.3612329      Incl.   25.38564     -0.60961126     +0.02626676             
P   2.24           H   23.21          G   0.15           U   9                  
Residuals in seconds of arc
240629 F52  0.0   0.4+    240629 F52  0.1-  0.0     240701 807  0.6-  0.1-
240629 F52  0.3+  0.1-    240630 Z84  0.1-  0.2+    240701 807  0.3+  0.0
240629 F52  0.1-  0.2-    240630 Z84  0.3-  0.1+    240701 807  0.6+  0.2+
240629 F52  0.1+  0.5-    240630 Z84  0.1-  0.5+
Ephemeris:
2024 MQ1                 a,e,i = 1.71, 0.36, 25                  q = 1.0931
Date    TT    R. A. (2000) Decl.     Delta      r    Elong.  Phase     V
2024 06 01    23 19 21.2 -64 11 15   0.2664  1.1140   105.2    61.4    22.8
...
2024 06 16    21 39 02.9 -46 42 03   0.2048  1.1507   127.0    44.9    21.8
...
2024 06 24    20 52 50.1 -31 37 50   0.1922  1.1765   143.5    30.9    21.3
...
2024 06 30    20 23 41.1 -19 21 27   0.1975  1.1983   154.8    21.2    21.1
2024 07 01    20 19 18.8 -17 23 20   0.1997  1.2021   156.2    20.0    21.1
2024 07 02    20 15 04.8 -15 27 54   0.2023  1.2060   157.4    18.9    21.1
...
2024 07 08    19 52 35.5 -05 10 13   0.2247  1.2301   159.8    16.6    21.3
...
2024 07 16    19 29 57.5 +04 41 35   0.2702  1.2645   153.8    20.8    21.9
...
2024 07 31    19 06 03.8 +13 49 54   0.3854  1.3342   140.2    29.1    23.0
A. U. Tomatic                (C) Copyright 2024 MPC           M.P.E.C. 2024-N02
    
    
More information about the Iaude
mailing list